• In Latvia
  • List of Countries
  • For 7 days
  • Water Temperature
  • Satellite Maps
  • Weather Map
  • Weather Widgets
  • user-avatar
    Login

    Hourly Weather Rundale

    Today, 20 August, Sunday

    Time Temperature Precipitation Wind Pressure Humidity
    00:00 +17°C° 0.3 mm 2 mps 760 mmHg 95%
    01:00 +16°C° 0.3 mm 2 mps 761 mmHg 95%
    02:00 +16°C° 0.3 mm 2 mps 761 mmHg 95%
    03:00 +15°C° 0 mm 2 mps 761 mmHg 95%
    04:00 +15°C° 0 mm 2 mps 761 mmHg 95%
    05:00 +14°C° 0 mm 2 mps 761 mmHg 95%
    06:00 +15°C° 0 mm 2 mps 761 mmHg 92%
    07:00 +16°C° 0 mm 2 mps 762 mmHg 90%
    08:00 +17°C° 0 mm 2 mps 762 mmHg 87%
    09:00 +18°C° 0 mm 2 mps 762 mmHg 80%
    10:00 +19°C° 0 mm 2 mps 762 mmHg 73%
    11:00 +20°C° 0 mm 2 mps 762 mmHg 67%
    12:00 +20°C° 0.1 mm 2 mps 762 mmHg 70%
    13:00 +19°C° 0.1 mm 2 mps 762 mmHg 73%
    14:00 +19°C° 0.1 mm 2 mps 762 mmHg 75%
    15:00 +19°C° 0.4 mm 2 mps 762 mmHg 80%
    16:00 +18°C° 0.4 mm 3 mps 762 mmHg 85%
    17:00 +17°C° 0.4 mm 3 mps 761 mmHg 89%
    18:00 +17°C° 0.6 mm 2 mps 761 mmHg 91%
    19:00 +16°C° 0.6 mm 2 mps 761 mmHg 94%
    20:00 +15°C° 0.6 mm 2 mps 761 mmHg 96%
    21:00 +15°C° 0.8 mm 2 mps 761 mmHg 96%
    22:00 +15°C° 0.8 mm 2 mps 761 mmHg 97%
    23:00 +15°C° 0.8 mm 1 mps 761 mmHg 97%

    Tomorrow, 21 August, Monday

    Time Temperature Precipitation Wind Pressure Humidity
    00:00 +15°C° 0.5 mm 1 mps 761 mmHg 97%
    01:00 +15°C° 0.5 mm 1 mps 760 mmHg 97%
    02:00 +14°C° 0.5 mm 1 mps 760 mmHg 97%
    03:00 +14°C° 0.2 mm 1 mps 760 mmHg 97%
    04:00 +14°C° 0.2 mm 1 mps 760 mmHg 96%
    05:00 +14°C° 0.2 mm 1 mps 760 mmHg 96%
    06:00 +15°C° 0.2 mm 1 mps 760 mmHg 94%
    07:00 +15°C° 0.2 mm 1 mps 760 mmHg 93%
    08:00 +16°C° 0.2 mm 1 mps 760 mmHg 91%
    09:00 +16°C° 0.1 mm 1 mps 760 mmHg 87%
    10:00 +18°C° 0.1 mm 1 mps 760 mmHg 83%
    11:00 +19°C° 0.1 mm 1 mps 759 mmHg 79%
    12:00 +19°C° 0.1 mm 1 mps 759 mmHg 74%
    13:00 +20°C° 0.1 mm 1 mps 759 mmHg 68%
    14:00 +21°C° 0.1 mm 1 mps 759 mmHg 63%
    15:00 +21°C° 0.2 mm 1 mps 759 mmHg 64%
    16:00 +21°C° 0.2 mm 1 mps 759 mmHg 65%
    17:00 +21°C° 0.2 mm 1 mps 759 mmHg 66%
    18:00 +19°C° 0.1 mm 1 mps 759 mmHg 72%
    19:00 +18°C° 0.1 mm 1 mps 759 mmHg 78%
    20:00 +15°C° 0.1 mm 1 mps 759 mmHg 84%
    21:00 +15°C° 0.1 mm 1 mps 759 mmHg 86%
    22:00 +14°C° 0.1 mm 1 mps 759 mmHg 88%
    23:00 +14°C° 0.1 mm 1 mps 759 mmHg 91%

    Day after tomorrow, 22 August, Tuesday

    Time Temperature Precipitation Wind Pressure Humidity
    00:00 +13°C° 0 mm 1 mps 759 mmHg 91%
    01:00 +13°C° 0 mm 1 mps 759 mmHg 92%
    02:00 +13°C° 0 mm 1 mps 759 mmHg 93%
    03:00 +12°C° 0 mm 1 mps 759 mmHg 93%
    04:00 +12°C° 0 mm 1 mps 759 mmHg 94%
    05:00 +11°C° 0 mm 0 mps 759 mmHg 94%
    06:00 +12°C° 0 mm 0 mps 759 mmHg 91%
    07:00 +13°C° 0 mm 0 mps 759 mmHg 88%
    08:00 +15°C° 0 mm 0 mps 759 mmHg 84%
    09:00 +16°C° 0 mm 0 mps 758 mmHg 80%
    10:00 +19°C° 0 mm 1 mps 758 mmHg 75%
    11:00 +20°C° 0 mm 1 mps 758 mmHg 71%
    12:00 +21°C° 0.2 mm 1 mps 758 mmHg 68%
    13:00 +21°C° 0.2 mm 1 mps 757 mmHg 66%
    14:00 +22°C° 0.2 mm 1 mps 757 mmHg 63%
    15:00 +20°C° 0.4 mm 2 mps 757 mmHg 65%
    16:00 +20°C° 0.4 mm 2 mps 757 mmHg 67%
    17:00 +20°C° 0.4 mm 2 mps 757 mmHg 69%
    18:00 +18°C° 0.3 mm 2 mps 757 mmHg 75%
    19:00 +17°C° 0.3 mm 2 mps 756 mmHg 82%
    20:00 +15°C° 0.3 mm 2 mps 756 mmHg 89%
    21:00 +15°C° 0.2 mm 2 mps 756 mmHg 91%
    22:00 +14°C° 0.2 mm 2 mps 756 mmHg 92%
    23:00 +13°C° 0.2 mm 2 mps 756 mmHg 94%

    23 August, Wednesday

    Time Temperature Precipitation Wind Pressure Humidity
    00:00 +13°C° 0 mm 2 mps 756 mmHg 94%
    01:00 +13°C° 0 mm 2 mps 756 mmHg 95%
    02:00 +13°C° 0 mm 2 mps 756 mmHg 96%
    03:00 +13°C° 0 mm 2 mps 756 mmHg 96%
    04:00 +12°C° 0 mm 3 mps 756 mmHg 96%
    05:00 +12°C° 0 mm 3 mps 756 mmHg 97%
    06:00 +13°C° 0.1 mm 3 mps 756 mmHg 94%
    07:00 +14°C° 0.1 mm 4 mps 756 mmHg 91%
    08:00 +15°C° 0.1 mm 4 mps 756 mmHg 88%
    09:00 +15°C° 0.2 mm 4 mps 756 mmHg 82%
    10:00 +17°C° 0.2 mm 4 mps 756 mmHg 77%
    11:00 +17°C° 0.2 mm 5 mps 756 mmHg 71%
    12:00 +19°C° 0.2 mm 5 mps 756 mmHg 67%
    13:00 +19°C° 0.2 mm 5 mps 756 mmHg 64%
    14:00 +20°C° 0.2 mm 5 mps 756 mmHg 60%
    15:00 +19°C° 0.2 mm 5 mps 756 mmHg 62%
    16:00 +19°C° 0.2 mm 6 mps 756 mmHg 65%
    17:00 +17°C° 0.2 mm 6 mps 756 mmHg 68%
    18:00 +16°C° 0 mm 5 mps 756 mmHg 73%
    19:00 +15°C° 0 mm 5 mps 757 mmHg 78%
    20:00 +13°C° 0 mm 4 mps 757 mmHg 84%
    21:00 +13°C° 0 mm 4 mps 757 mmHg 85%
    22:00 +12°C° 0 mm 4 mps 757 mmHg 86%
    23:00 +12°C° 0 mm 4 mps 758 mmHg 87%

    24 August, Thursday

    Time Temperature Precipitation Wind Pressure Humidity
    00:00 +11°C° 0 mm 4 mps 758 mmHg 87%
    01:00 +11°C° 0 mm 4 mps 758 mmHg 86%
    02:00 +10°C° 0 mm 4 mps 758 mmHg 86%
    03:00 +10°C° 0 mm 4 mps 758 mmHg 87%
    04:00 +10°C° 0 mm 3 mps 759 mmHg 87%
    05:00 +9°C° 0 mm 3 mps 759 mmHg 88%
    06:00 +11°C° 0 mm 4 mps 759 mmHg 83%
    07:00 +12°C° 0 mm 4 mps 759 mmHg 79%
    08:00 +14°C° 0 mm 4 mps 759 mmHg 74%
    09:00 +15°C° 0 mm 5 mps 759 mmHg 69%
    10:00 +17°C° 0 mm 5 mps 759 mmHg 63%
    11:00 +19°C° 0 mm 5 mps 759 mmHg 58%
    12:00 +20°C° 0 mm 5 mps 759 mmHg 57%
    13:00 +20°C° 0 mm 5 mps 759 mmHg 57%
    14:00 +21°C° 0 mm 5 mps 759 mmHg 56%
    15:00 +20°C° 0.1 mm 5 mps 759 mmHg 59%
    16:00 +20°C° 0.1 mm 5 mps 759 mmHg 63%
    17:00 +19°C° 0.1 mm 4 mps 758 mmHg 66%
    18:00 +19°C° 0 mm 4 mps 758 mmHg 67%
    19:00 +18°C° 0 mm 4 mps 758 mmHg 69%
    20:00 +17°C° 0 mm 4 mps 758 mmHg 71%
    21:00 +17°C° 0.1 mm 4 mps 757 mmHg 74%
    22:00 +17°C° 0.1 mm 4 mps 757 mmHg 77%
    23:00 +15°C° 0.1 mm 4 mps 756 mmHg 79%

    25 August, Friday

    Time Temperature Precipitation Wind Pressure Humidity
    00:00 +15°C° 0.2 mm 4 mps 756 mmHg 79%
    01:00 +17°C° 0.2 mm 4 mps 755 mmHg 79%
    02:00 +17°C° 0.2 mm 4 mps 755 mmHg 79%
    03:00 +15°C° 0.3 mm 4 mps 755 mmHg 83%
    04:00 +15°C° 0.3 mm 4 mps 754 mmHg 86%
    05:00 +15°C° 0.3 mm 4 mps 754 mmHg 90%
    06:00 +16°C° 0.5 mm 5 mps 754 mmHg 89%
    07:00 +16°C° 0.5 mm 5 mps 754 mmHg 89%
    08:00 +17°C° 0.5 mm 5 mps 754 mmHg 88%
    09:00 +19°C° 0.1 mm 5 mps 754 mmHg 86%
    10:00 +20°C° 0.1 mm 5 mps 754 mmHg 83%
    11:00 +21°C° 0.1 mm 5 mps 754 mmHg 80%
    12:00 +21°C° 0.1 mm 6 mps 755 mmHg 78%
    13:00 +20°C° 0.1 mm 6 mps 755 mmHg 76%
    14:00 +20°C° 0.1 mm 6 mps 755 mmHg 75%
    15:00 +20°C° 0 mm 6 mps 755 mmHg 74%
    16:00 +20°C° 0 mm 6 mps 756 mmHg 73%
    17:00 +20°C° 0 mm 5 mps 756 mmHg 72%
    18:00 +19°C° 0.1 mm 5 mps 756 mmHg 77%
    19:00 +17°C° 0.1 mm 5 mps 756 mmHg 82%
    20:00 +17°C° 0.1 mm 4 mps 757 mmHg 87%
    21:00 +17°C° 0 mm 4 mps 757 mmHg 90%
    22:00 +16°C° 0 mm 3 mps 758 mmHg 93%
    23:00 +14°C° 0 mm 3 mps 758 mmHg 96%
    Show more